[[{"header":{"parameterUnit":"m.s-1","parameterCategory":1,"la1":30.2991,"la2":30.254,"lo1":-89.0895,"lo2":-89.0444,"dy":0.0017,"dx":0.0017,"nx":28,"ny":28,"refTime":"2024-05-10T21:00:00:Z","depth":0,"parameterNumber":2,"parameterNumberName":"U-component_of_WINDS"},"data":[0,0,0,0,0,0,0,0,0,0,0,0,0,0,0,0,0,0,0,0,0,0,0,0,0,0,0,0,0,0,0,0,0,0,0,0,0,0,0,0,0,0,0,0,0,0,0,0,0,0,0,0,0,0,0,0,0,0,-3.8475,-3.8474,0,-3.8432,-3.8432,-3.8432,-3.8319,-3.8317,-3.8315,-3.8312,-3.8273,-3.8274,-3.8275,0,0,0,0,0,0,0,0,0,0,0,0,0,-3.8463,-3.8464,-3.8475,-3.8474,-3.8474,-3.8433,-3.8432,-3.8431,-3.832,-3.8317,-3.8314,-3.8311,-3.8272,-3.8274,-3.8275,0,0,0,0,0,0,0,0,0,0,0,0,0,-3.8449,-3.8464,-3.8475,-3.8413,-3.8407,-3.8433,-3.8432,-3.8431,-3.832,-3.8317,-3.8313,-3.831,-3.8272,-3.8273,-3.8275,-3.8359,0,0,-3.8281,-3.8281,0,0,0,0,0,0,0,0,-3.845,-3.845,-3.8423,-3.8417,-3.8411,-3.8377,-3.8413,-3.8407,-3.8321,-3.8354,-3.8312,-3.8308,-3.8311,-3.8309,-3.8309,-3.8357,-3.8355,-3.8281,-3.8282,-3.8283,-3.8283,0,0,0,0,0,0,0,-3.8451,-3.8451,-3.8458,-3.8423,-3.8415,-3.8389,-3.8383,-3.8411,-3.8353,-3.835,-3.8342,-3.8338,-3.8307,-3.8308,-3.8307,-3.8354,-3.8281,-3.8282,-3.8283,-3.8284,-3.8469,-3.8473,0,0,0,0,0,0,-3.8461,-3.8453,-3.8459,-3.8457,-3.8422,-3.8392,-3.8385,-3.8392,-3.8352,-3.8343,-3.8342,-3.8333,-3.8306,-3.8305,-3.8306,-3.8401,-3.8283,-3.8284,-3.8285,-3.8465,-3.847,-3.8474,0,0,0,0,0,0,-3.8461,-3.8462,-3.8461,-3.8453,-3.845,-3.8396,-3.8404,-3.8393,-3.8394,-3.8346,-3.8335,-3.8353,-3.8303,-3.8303,-3.8346,-3.8398,-3.8285,-3.8287,-3.8461,-3.8467,-3.8472,-3.8592,0,0,0,0,0,0,-3.8461,-3.8463,-3.8493,-3.8454,-3.8451,-3.8502,-3.8407,-3.8395,-3.8397,-3.8385,-3.8354,-3.8345,-3.8301,-3.8344,-3.8348,-3.8398,-3.8288,-3.8456,-3.8464,-3.847,-3.8584,-3.8602,-3.8617,0,0,0,0,0,-3.8461,-3.8529,-3.8495,-3.8497,-3.8488,-3.8505,-3.8503,-3.845,-3.8401,-3.8432,-3.8401,-3.8346,-3.8392,-3.8349,-3.8353,-3.8405,-3.8453,-3.8461,-3.847,-3.8576,-3.8598,-3.8617,0,0,0,0,0,0,-3.8577,-3.8523,-3.8485,-3.8542,-3.8529,-3.8486,-3.8523,-3.8475,-3.8476,-3.8466,-3.8401,-3.8395,-3.8447,-3.843,-3.8384,-3.8484,-3.8413,-3.8423,-3.8493,-3.8513,-3.853,-3.8533,-3.829,0,0,0,0,0,-3.861,-3.8627,-3.8579,-3.8635,-3.863,-3.8578,-3.8583,-3.8543,-3.8527,-3.8522,-3.8494,-3.8482,-3.8493,-3.8502,-3.851,-3.8581,-3.8573,-3.8618,-3.8635,-3.8649,-3.8658,-3.8695,-3.8715,-3.8503,-3.8503,-3.8503,0,0,-3.8677,-3.8649,-3.8664,-3.8657,-3.8642,-3.8663,-3.8574,-3.8599,-3.8614,-3.8526,-3.8564,-3.8544,-3.8526,-3.8584,-3.8608,-3.8571,-3.8715,-3.866,-3.8671,-3.8673,-3.8706,-3.8726,-3.8744,-3.8509,-3.8508,-3.8507,0,0,-3.8809,-3.879,-3.8834,-3.8821,-3.8799,-3.8764,-3.8775,-3.8739,-3.8722,-3.8759,-3.8693,-3.8711,-3.8732,-3.8722,-3.872,-3.885,-3.88,-3.8855,-3.8942,-3.8979,-3.8996,-3.901,-3.9057,-3.9075,-3.8864,-3.8865,-3.8865,0,-3.8895,-3.8922,-3.8863,-3.8893,-3.8892,-3.8812,-3.8857,-3.8847,-3.883,-3.8832,-3.8791,-3.8816,-3.8799,-3.8853,-3.8885,-3.8886,-3.8897,-3.8858,-3.8998,-3.9012,-3.9024,-3.9069,-3.9087,-3.8871,-3.8871,-3.887,-3.8869,0,-3.903,-3.905,-3.9089,-3.9073,-3.9077,-3.9114,-3.9062,-3.9073,-3.9033,-3.9003,-3.9044,-3.9019,-3.9021,-3.9031,-3.8993,-3.9081,-3.9059,-3.9009,-3.8937,-3.9053,-3.9093,-3.9109,-3.8881,-3.8879,-3.8877,-3.8875,0,0,-3.9235,-3.9185,-3.92,-3.9192,-3.9163,-3.9178,-3.9212,-3.9213,-3.9225,-3.9216,-3.9244,-3.9264,-3.9218,-3.9215,-3.9175,-3.9208,-3.9313,-3.9153,-3.9152,-3.9185,-3.941,-3.9448,-3.9468,-3.928,-3.9283,-3.9285,-3.9411,0,-3.936,-3.9414,-3.9362,-3.9428,-3.9446,-3.9371,-3.9401,-3.9387,-3.9361,-3.9373,-3.9344,-3.9359,-3.9297,-3.9295,-3.9324,-3.9294,-3.9358,-3.9284,-3.9306,-3.9308,-3.9313,-3.9489,-3.9529,-3.9649,-3.9427,-3.9429,-3.9431,0,-3.9513,-3.951,-3.9578,-3.9544,-3.955,-3.9578,-3.9575,-3.9588,-3.9571,-3.9549,-3.9547,-3.9498,-3.9531,-3.9461,-3.9506,-3.9458,-3.9464,-3.9451,-3.9454,-3.9454,-3.9377,-3.9495,-3.9686,-3.9705,-3.9455,-3.9453,-3.9452,0,-3.9656,-3.9669,-3.9711,-3.9707,-3.9668,-3.969,-3.9676,-3.9655,-3.9659,-3.9657,-3.9659,-3.9662,-3.9663,-3.9667,-3.9621,-3.9574,-3.9673,-3.9598,-3.9657,-3.9658,-3.9681,-3.968,-3.9877,-3.9685,-3.9685,-3.9684,-3.9684,0,-3.9802,-3.9846,-3.9775,-3.9801,-3.9849,-3.9789,-3.9839,-3.9816,-3.9799,-3.982,-3.9756,-3.9778,-3.9715,-3.973,-3.9695,-3.9738,-3.9739,-3.9724,-3.9714,-3.973,-3.9732,-3.9733,-3.9724,-3.9689,-3.9688,-3.9687,-3.9686,0,-3.997,-3.9924,-3.9965,-3.9925,-3.9916,-3.9953,-3.992,-3.9943,-3.9912,-3.994,-3.9943,-3.9895,-3.991,-3.9864,-3.9873,-3.9849,-3.9912,-3.9889,-3.9918,-3.9911,-3.9972,-3.9967,-4.0177,-4.0201,-3.9993,-3.9996,-3.9997,0,-4.0066,-4.0098,-4.0062,-4.0071,-4.0059,-4.0075,-4.0078,-4.0022,-4.0028,-4.0012,-4.0038,-4.0047,-4.0052,-4.008,-4.0047,-4.0053,-4.0029,-4.0102,-4.003,-4.0045,-4.0031,-4.003,-4.0033,-4.0117,-4.012,-4.0122,-4.0124,0,-4.0242,-4.0217,-4.0224,-4.0224,-4.023,-4.0227,-4.022,-4.0232,-4.0171,-4.0182,-4.0196,-4.02,-4.0208,-4.0219,-4.0218,-4.0204,-4.0155,-4.0147,-4.0161,-4.0177,-4.0193,-4.0186,-3.9959,-4.0142,-4.014,-4.0139,-4.0138,-4.0137,-4.0377,-4.0402,-4.038,-4.0391,-4.0379,-4.0374,-4.0394,-4.0366,-4.0376,-4.0377,-4.0343,-4.0365,-4.0348,-4.0341,-4.0333,-4.035,-4.0316,-4.0336,-4.0342,-4.0348,-4.0358,-4.019,-4.0349,-4.0349,-4.0348,-4.0348,-4.0347,0,-4.0549,-4.0532,-4.0542,-4.0534,-4.0542,-4.0493,-4.0483,-4.0494,-4.0514,-4.0501,-4.0507,-4.0524,-4.0534,-4.0502,-4.0508,-4.0528,-4.0506,-4.0532,-4.053,-4.0528,-4.0387,-4.0375,-4.055,-4.055,-4.055,-4.055,-4.055,-4.055,-4.064,-4.0681,-4.0654,-4.0689,-4.0671,-4.069,-4.0689,-4.0685,-4.0675,-4.0696,-4.0704,-4.0682,-4.0663,-4.0667,-4.0675,-4.0665,-4.0671,-4.0705,-4.0688,-4.0557,-4.0537,-4.0519,-4.0507,-4.0706,-4.0706,-4.0826,-4.0827,-4.0828]},{"header":{"parameterUnit":"m.s-1","parameterCategory":1,"la1":30.2991,"la2":30.254,"lo1":-89.0895,"lo2":-89.0444,"dy":0.0017,"dx":0.0017,"nx":28,"ny":28,"refTime":"2024-05-10T21:00:00:Z","depth":0,"parameterNumber":3,"parameterNumberName":"V-component_of_WINDS"},"data":[0,0,0,0,0,0,0,0,0,0,0,0,0,0,0,0,0,0,0,0,0,0,0,0,0,0,0,0,0,0,0,0,0,0,0,0,0,0,0,0,0,0,0,0,0,0,0,0,0,0,0,0,0,0,0,0,0,0,-3.0795,-3.0795,0,-3.0759,-3.0759,-3.0759,-3.0702,-3.0701,-3.07,-3.0699,-3.0662,-3.0662,-3.0662,0,0,0,0,0,0,0,0,0,0,0,0,0,-3.0816,-3.0816,-3.0795,-3.0795,-3.0794,-3.0759,-3.0759,-3.0758,-3.0702,-3.0701,-3.07,-3.0698,-3.0662,-3.0662,-3.0662,0,0,0,0,0,0,0,0,0,0,0,0,0,-3.0796,-3.0815,-3.0795,-3.0762,-3.0759,-3.076,-3.0759,-3.0758,-3.0702,-3.0701,-3.0699,-3.0698,-3.0662,-3.0662,-3.0662,-3.0692,0,0,-3.0662,-3.0662,0,0,0,0,0,0,0,0,-3.0797,-3.0795,-3.0767,-3.0764,-3.0761,-3.0734,-3.0753,-3.0736,-3.0703,-3.0724,-3.0699,-3.0697,-3.0687,-3.0685,-3.0682,-3.0691,-3.0689,-3.0662,-3.0662,-3.0662,-3.0662,0,0,0,0,0,0,0,-3.0799,-3.0797,-3.0781,-3.0767,-3.0763,-3.0749,-3.0745,-3.0749,-3.0714,-3.0722,-3.0718,-3.0714,-3.0685,-3.0682,-3.068,-3.0689,-3.0662,-3.0662,-3.0662,-3.0662,-3.0722,-3.0724,0,0,0,0,0,0,-3.0805,-3.0798,-3.0782,-3.078,-3.0775,-3.075,-3.0745,-3.0744,-3.0714,-3.0708,-3.0716,-3.0712,-3.0683,-3.068,-3.0679,-3.0713,-3.0662,-3.0662,-3.0662,-3.0721,-3.0723,-3.0725,0,0,0,0,0,0,-3.0806,-3.0804,-3.0784,-3.0788,-3.0784,-3.0751,-3.075,-3.0744,-3.0741,-3.0709,-3.0703,-3.0719,-3.0681,-3.0679,-3.069,-3.0711,-3.0662,-3.0662,-3.0719,-3.0721,-3.0724,-3.0783,0,0,0,0,0,0,-3.0806,-3.0805,-3.0816,-3.0789,-3.0784,-3.0795,-3.0752,-3.0744,-3.0741,-3.0735,-3.0711,-3.0705,-3.068,-3.069,-3.069,-3.071,-3.0662,-3.0717,-3.072,-3.0723,-3.0779,-3.0787,-3.0794,0,0,0,0,0,-3.0807,-3.0833,-3.0816,-3.0815,-3.0797,-3.0797,-3.0794,-3.0765,-3.0743,-3.0754,-3.0734,-3.0706,-3.0709,-3.0692,-3.0691,-3.0712,-3.0715,-3.0719,-3.0723,-3.0775,-3.0785,-3.0794,0,0,0,0,0,0,-3.0863,-3.0829,-3.081,-3.0828,-3.0816,-3.0787,-3.08,-3.0776,-3.0769,-3.0765,-3.0728,-3.0723,-3.0739,-3.0726,-3.0708,-3.074,-3.0708,-3.0712,-3.0748,-3.0757,-3.0765,-3.0768,-3.0662,0,0,0,0,0,-3.0878,-3.088,-3.085,-3.0869,-3.0863,-3.0833,-3.0831,-3.081,-3.0796,-3.079,-3.0771,-3.0759,-3.0757,-3.0756,-3.0753,-3.0776,-3.0771,-3.079,-3.0798,-3.0804,-3.0808,-3.0821,-3.083,-3.0737,-3.0737,-3.0737,0,0,-3.0907,-3.0889,-3.0892,-3.0879,-3.0867,-3.0871,-3.0829,-3.0834,-3.0836,-3.0791,-3.08,-3.0786,-3.077,-3.0788,-3.0795,-3.0778,-3.0833,-3.0809,-3.0814,-3.0815,-3.0826,-3.0835,-3.0843,-3.0739,-3.0739,-3.0738,0,0,-3.0964,-3.095,-3.0964,-3.0953,-3.0936,-3.0916,-3.0919,-3.0895,-3.0884,-3.0893,-3.0859,-3.0861,-3.0859,-3.0849,-3.0843,-3.0898,-3.0872,-3.0898,-3.0937,-3.095,-3.0958,-3.0964,-3.0984,-3.0992,-3.0901,-3.0901,-3.0901,0,-3.1003,-3.1007,-3.0975,-3.0982,-3.0978,-3.0938,-3.0953,-3.0943,-3.0926,-3.0924,-3.0905,-3.0902,-3.0888,-3.0904,-3.0917,-3.0914,-3.0917,-3.09,-3.0959,-3.0965,-3.0971,-3.099,-3.0997,-3.0905,-3.0904,-3.0904,-3.0904,0,-3.1056,-3.106,-3.1073,-3.1058,-3.1055,-3.1067,-3.1037,-3.1038,-3.1017,-3.0999,-3.101,-3.0992,-3.0984,-3.0986,-3.0966,-3.1,-3.099,-3.0966,-3.0932,-3.0983,-3.1001,-3.1008,-3.0909,-3.0908,-3.0907,-3.0906,0,0,-3.1146,-3.1114,-3.112,-3.1113,-3.1091,-3.1093,-3.1103,-3.1096,-3.1098,-3.1088,-3.1096,-3.1095,-3.1073,-3.1067,-3.1045,-3.1057,-3.1102,-3.1031,-3.103,-3.1046,-3.114,-3.1159,-3.1168,-3.1085,-3.1086,-3.1087,-3.1142,0,-3.1198,-3.1213,-3.1186,-3.1208,-3.1211,-3.1173,-3.1182,-3.117,-3.1154,-3.1155,-3.1136,-3.1137,-3.1107,-3.1104,-3.1113,-3.1095,-3.1121,-3.109,-3.1093,-3.1093,-3.1099,-3.1177,-3.1196,-3.1248,-3.1148,-3.1149,-3.115,0,-3.1261,-3.1255,-3.1277,-3.1255,-3.1256,-3.1264,-3.1256,-3.1257,-3.1243,-3.1231,-3.1225,-3.12,-3.1208,-3.1177,-3.1189,-3.1169,-3.1168,-3.116,-3.1161,-3.116,-3.1125,-3.1179,-3.1264,-3.1272,-3.116,-3.1159,-3.1159,0,-3.1326,-3.1322,-3.1336,-3.1331,-3.1305,-3.1312,-3.1302,-3.1287,-3.1285,-3.1278,-3.1277,-3.1272,-3.1269,-3.1266,-3.124,-3.1218,-3.1256,-3.1221,-3.1246,-3.1247,-3.1256,-3.1256,-3.1343,-3.1255,-3.1255,-3.1254,-3.1254,0,-3.1387,-3.1403,-3.1364,-3.1373,-3.1389,-3.1358,-3.1375,-3.1361,-3.1348,-3.1353,-3.132,-3.1326,-3.1291,-3.1293,-3.1273,-3.1287,-3.1286,-3.1276,-3.1271,-3.128,-3.1281,-3.1279,-3.1275,-3.1256,-3.1256,-3.1256,-3.1255,0,-3.1462,-3.1437,-3.1449,-3.1425,-3.1419,-3.1432,-3.1411,-3.1418,-3.14,-3.1408,-3.1408,-3.138,-3.1381,-3.1355,-3.135,-3.1337,-3.136,-3.1348,-3.1365,-3.1361,-3.1388,-3.1386,-3.1478,-3.1488,-3.1393,-3.1394,-3.1395,0,-3.1503,-3.1514,-3.1491,-3.1493,-3.1484,-3.1487,-3.1485,-3.1455,-3.1454,-3.144,-3.1449,-3.1448,-3.1445,-3.1449,-3.1428,-3.1425,-3.1413,-3.1445,-3.1412,-3.1421,-3.1414,-3.1414,-3.1416,-3.1452,-3.1453,-3.1454,-3.1455,0,-3.158,-3.1567,-3.1566,-3.1561,-3.156,-3.1554,-3.1546,-3.1549,-3.1516,-3.1518,-3.1519,-3.1517,-3.1513,-3.1512,-3.1506,-3.1495,-3.1471,-3.1466,-3.1472,-3.1481,-3.1491,-3.1487,-3.1385,-3.1464,-3.1463,-3.1462,-3.1462,-3.1461,-3.1639,-3.1648,-3.1633,-3.1634,-3.1625,-3.1619,-3.1625,-3.1608,-3.1608,-3.1603,-3.1585,-3.1589,-3.1576,-3.1565,-3.1557,-3.1561,-3.1545,-3.1553,-3.1555,-3.1558,-3.1563,-3.149,-3.1559,-3.1559,-3.1559,-3.1558,-3.1558,0,-3.1714,-3.1704,-3.1704,-3.1695,-3.1695,-3.1672,-3.1662,-3.1665,-3.1669,-3.1659,-3.1657,-3.1659,-3.1659,-3.1639,-3.1636,-3.1643,-3.1631,-3.1643,-3.1642,-3.1641,-3.1577,-3.1573,-3.1652,-3.1652,-3.1652,-3.1652,-3.1652,-3.1652,-3.1754,-3.1767,-3.1753,-3.1763,-3.1752,-3.1756,-3.1753,-3.1748,-3.174,-3.1743,-3.1743,-3.173,-3.1716,-3.1713,-3.1712,-3.1706,-3.1707,-3.1723,-3.1713,-3.1654,-3.1645,-3.1636,-3.1632,-3.1723,-3.1723,-3.1777,-3.1777,-3.1778]}]]